COSMOS 2251 DEB, 36453

Orbit data source: Space-Track

COSMOS 2251 DEB, 36453 is space debris in LEO originally from a launch on Wed, 16 Jun 1993 UTC launched from the Plesetsk Missile And Space Complex (PKMTR). The debris from Iridium 33, an American commercial communications satellite, has been tracked extensively since its accidental collision with the defunct Russian satellite Cosmos 2251 in 2009. This event, occurring at high speed in low Earth orbit (LEO), generated thousands of pieces of space debris, significantly increasing the risk of further collisions. The Iridium 33 debris cloud has impacted space traffic management and orbital debris mitigation strategies, making it a subject of ongoing study in space situational awareness.

Loading next visibility...
Identifier
36453, 1993-036BBC
Orbit
LEO
Country
Flag of CISCIS
Related business
Manufacturer
Unknown
Mission
Spacecraft
Bus & Motor
Unknown
Mass
Unknown
Launch date (UTC)
1993-06-16 (33 years ago)
Launch vehicle
Unknown
Launch site
Plesetsk Missile And Space Complex (PKMTR)
Object type
Payload
Rocket body
Debris
Shape & HBR
Unknown shape, 0.1 m
Radar Cross Section
Small (<0.1 m²)

Expand to show TLE details & history
Last TLE update: 14 hours ago

TLE from 14 hours ago
0 COSMOS 2251 DEB
1 36453U 93036BBC 26237.17748633  .00002979  00000-0  68664-3 0  9991
2 36453  73.9246  26.5790 0068385 234.1071 299.4104 14.54356630881790
Epoch: 2026-08-25T04:15Z
TLE epoch observation values (Epoch: 2026-08-25T04:15:34.818Z)
Latitude
6.81733°
Longitude
167.27172°
Altitude
689.896 km
Speed
7.525 km/s
True Right ascension
13h 38m 27s
True Declination
6° 46' 36"
Sunlit
Object was in daylight at epoch
Visualization orbit readout
Latitude
Unknown
Longitude
Unknown
Altitude
Unknown
Speed
Unknown
Apparent Right ascension
Unknown
Apparent Declination
Unknown
Sunlit
N/A
Visualization observer readout
Local Sidereal Time
09:24:53
Azimuth
Unknown
Elevation
Unknown
Doppler factor
Unknown
Orbital elements
Apogee altitude
757.534 km
Perigee altitude
660.602 km
Semi-major axis
7,087.205 km
Eccentricity
0.00684
Inclination
73.9246°
RAAN
26.579°
Arg. of periapsis
234.1071°
True anomaly
298.7249°
Mean anomaly
299.4104°
Eccentric anomaly
299.06793°
Mean motion
3.63773 °/min
Orbital period
98.96 mins
BSTAR
0.00068664
Loading maneuver chart data...
Computing Atmospheric mass density...

Documentation

Showing up to 5 results
|